Location: Artiguedieu
(43.5000°N, 0.5454°E)
Time: 13:00:32
(UTC+00:00)

Cosmos 1844 Rocket - Pass Details

Date: 06 December 2020
Orbit: 824 x 845 km, 71.0° (Epoch: 27 January)

Event Time Altitude Azimuth Distance (km) Brightness Sun altitude
Exits shadow 04:02:55 24° 28° (NNE) 1,679 4.4 -34.3°
Drops below altitude 10° 04:05:04 10° 27° (NNE) 2,473 5.4 -33.9°
Sets 04:07:31 0° 26° (NNE) 3,412 6.2 -33.4°
